Regional Weather Roundup
Issued by NWS Lake Charles, LA

Home | Current Version | Previous Version | Text Only | Print | Product List | Glossary On
Versions: 1 2 3 4 5 6 7 8 9 10 11 12 13 14 15 16 17 18 19 20 21 22 23 24 25 26 27 28 29 30 31 32 33 34 35 36 37 38 39 40 41 42 43 44 45 46 47 48 49 50
000
ASUS44 KLCH 292010
RWRLCH
RWRLCH
REGIONAL WEATHER ROUNDUP
NATIONAL WEATHER SERVICE LAKE CHARLES LA
300 PM CDT SAT AUG 29 2015

Note: "fair" indicates few or no clouds below 12,000 feet with no
significant weather and/or obstructions to visibility.


ACROSS SOUTHEAST TEXAS

CITY           SKY/WX    TMP DP  RH WIND       PRES   REMARKS
BEAUMONT       MOSUNNY   90  65  43 VRB5      30.01F
BEAUMONT CITY    N/A     87  65  47 CALM      30.02F
ORANGE         MOCLDY    88  60  38 S6        30.03F
JASPER         MOSUNNY   91  64  41 S6        30.05F
$$

ACROSS CENTRAL LOUISIANA

CITY           SKY/WX    TMP DP  RH WIND       PRES   REMARKS
LEESVILLE      SUNNY     89  60  37 W5        30.01F
FULLERTON        N/A     94  60  32 VRB3      29.98F
ALEXANDRIA INT SUNNY     91  60  35 S9        29.99F
ESLER FIELD    MOSUNNY   94  59  31 E7        30.01F
DERIDDER         N/A     89  58  34 CALM      30.04F
OAKDALE          N/A     90  63  40 SW5       30.01F
OPELOUSAS        N/A     89  62  40 N3        30.01F
$$

ACROSS SOUTHWEST AND SOUTH CENTRAL LOUISIANA

CITY           SKY/WX    TMP DP  RH WIND       PRES   REMARKS
SULPHUR        MOCLDY    90  61  37 S5        30.03F
LAKE CHARLES   PTSUNNY   88  65  46 MISG      30.02F
CHENNAULT INT  NOT AVBL
CAMERON PHI    CLEAR     86  64  48 SW6       30.05F
DEQUINCY         N/A     89  64  44 SE7       30.02F
JENNINGS         N/A     88  64  45 CALM      30.02F
LAFAYETTE      MOSUNNY   91  65  41 N5        30.02F
NEW IBERIA     MOSUNNY   91  65  41 NE3       30.03F
ABBEVILLE        N/A     89  65  44 CALM      30.02F
PATTERSON      SUNNY     88  63  42 NW6       30.04S
SALT POINT       N/A     87  66  49 VRB5      30.02F
$$

SELECTED SITES ACROSS THE REGION

CITY           SKY/WX    TMP DP  RH WIND       PRES   REMARKS
HOUSTON BUSH   MOSUNNY   90  65  43 S5        30.01F
HOUSTON HOBBY  MOSUNNY   89  64  43 S7        30.00F
GALVESTON      SUNNY     87  65  47 SE9       30.03F
COLLEGE STAT   MOSUNNY   88  65  46 S8        30.01F
CONROE         MOSUNNY   89  62  40 S10       30.02F
HUNTSVILLE     SUNNY     93  61  34 VRB3      30.00F
LUFKIN         MOSUNNY   92  61  35 NE5       30.00F
SHREVEPORT     PTSUNNY   93  65  39 SW3       30.00F
MONROE         PTSUNNY   95  59  30 NE7       30.00F
NATCHEZ MS     MOSUNNY   90  64  43 E5        30.02F
BATON ROUGE    MOSUNNY   88  64  44 E8        30.02F
N.O. INTL ARPT MOSUNNY   88  63  43 VRB6      30.02F
SLIDELL        MOSUNNY   88  68  51 S12       30.03F
$$

MARINE REPORTS

STATION/POSITION TIME  TEMP    WIND        PRES    VSBY  WAVE
                       AIR SEA DIR/SP/G                  HT/PER
                 (UTC) (F)     (DEG/KT/KT) (MB)    (MI)  (FT/S)
BUOY 30 S HIGH I 1950   84 87  140/  6/  8 1016.5F         1/ 3
SEA RIM ST PARK  2000   85     140/  7/ 10 1017.2F
PORT ARTHUR      NOT AVBL
SABINE PASS N    NOT AVBL
TEXAS POINT      NOT AVBL
CALCASIEU PASS   NOT AVBL
LK CHARLES BEACH NOT AVBL
MARSH ISLAND     1900   85      70/  1/  3   N/A           0
FRESH WATER LOCK NOT AVBL
AMERADA PASS     NOT AVBL
$$



USA.gov is the U.S. government's official web portal to all federal, state and local government web resources and services.